[[{"header":{"parameterUnit":"m.s-1","parameterCategory":1,"la1":30.2991,"la2":30.254,"lo1":-89.0895,"lo2":-89.0444,"dy":0.0017,"dx":0.0017,"nx":28,"ny":28,"refTime":"2024-11-28T09:00:00:Z","depth":0,"parameterNumber":2,"parameterNumberName":"U-component_of_WINDS"},"data":[0,0,0,0,0,0,0,0,0,0,0,0,0,0,0,0,0,0,0,0,0,0,0,0,0,0,0,0,0,0,0,0,0,0,0,0,0,0,0,0,0,0,0,0,0,0,0,0,0,0,0,0,0,0,0,0,0,0,-1.4629,-1.463,0,-1.4747,-1.4748,-1.4749,-1.4738,-1.4736,-1.4734,-1.4733,-1.4857,-1.4861,-1.4866,0,0,0,0,0,0,0,0,0,0,0,0,0,-1.4394,-1.4399,-1.4628,-1.463,-1.4631,-1.4747,-1.4748,-1.475,-1.4738,-1.4736,-1.4734,-1.4732,-1.4855,-1.4861,-1.4867,0,0,0,0,0,0,0,0,0,0,0,0,0,-1.4503,-1.44,-1.4628,-1.464,-1.4642,-1.4746,-1.4748,-1.475,-1.4739,-1.4736,-1.4733,-1.4731,-1.4853,-1.486,-1.4868,-1.4969,0,0,-1.4891,-1.4894,0,0,0,0,0,0,0,0,-1.4497,-1.4511,-1.4636,-1.4639,-1.4642,-1.4725,-1.4711,-1.4824,-1.474,-1.4702,-1.4733,-1.4729,-1.4815,-1.4826,-1.4854,-1.4975,-1.498,-1.4891,-1.4896,-1.4899,-1.4901,0,0,0,0,0,0,0,-1.4489,-1.4506,-1.4675,-1.4638,-1.4641,-1.4639,-1.4652,-1.4732,-1.4773,-1.4705,-1.4705,-1.4719,-1.4816,-1.4847,-1.4857,-1.4982,-1.4891,-1.4898,-1.4902,-1.4905,-1.5192,-1.5195,0,0,0,0,0,0,-1.4479,-1.45,-1.4672,-1.4679,-1.4561,-1.4646,-1.466,-1.4701,-1.4772,-1.478,-1.4721,-1.4718,-1.4835,-1.4848,-1.4861,-1.4985,-1.4899,-1.4906,-1.491,-1.5189,-1.5192,-1.5196,0,0,0,0,0,0,-1.4474,-1.4494,-1.4667,-1.4589,-1.4611,-1.4653,-1.4699,-1.4705,-1.4735,-1.4784,-1.4791,-1.4745,-1.4834,-1.485,-1.4942,-1.4989,-1.4909,-1.4916,-1.5185,-1.519,-1.5194,-1.5233,0,0,0,0,0,0,-1.4467,-1.4492,-1.4531,-1.459,-1.4615,-1.4746,-1.4702,-1.4709,-1.4748,-1.4745,-1.4808,-1.4816,-1.4833,-1.4931,-1.495,-1.4998,-1.4922,-1.5181,-1.5187,-1.5193,-1.5228,-1.5238,-1.5247,0,0,0,0,0,-1.4459,-1.4538,-1.4533,-1.4554,-1.4665,-1.4749,-1.4763,-1.478,-1.4752,-1.4792,-1.4822,-1.4814,-1.498,-1.494,-1.4961,-1.5013,-1.5178,-1.5185,-1.5192,-1.5223,-1.5236,-1.5247,0,0,0,0,0,0,-1.4485,-1.4546,-1.4542,-1.4642,-1.469,-1.4746,-1.4797,-1.4793,-1.4851,-1.4846,-1.4865,-1.4879,-1.4972,-1.5001,-1.4956,-1.5114,-1.5076,-1.5087,-1.5092,-1.5105,-1.5114,-1.5106,-1.4928,0,0,0,0,0,-1.4502,-1.4565,-1.4615,-1.4699,-1.4723,-1.4756,-1.4793,-1.4802,-1.4852,-1.4873,-1.491,-1.4961,-1.5024,-1.5066,-1.5127,-1.5231,-1.5245,-1.5276,-1.5286,-1.5294,-1.5304,-1.5361,-1.5376,-1.5219,-1.5219,-1.5219,0,0,-1.454,-1.4581,-1.4619,-1.4705,-1.4744,-1.4808,-1.4773,-1.4843,-1.4892,-1.4884,-1.4973,-1.5002,-1.5059,-1.5157,-1.5202,-1.5184,-1.535,-1.5303,-1.5309,-1.5315,-1.537,-1.5385,-1.5398,-1.5223,-1.5223,-1.5222,0,0,-1.4641,-1.4677,-1.4751,-1.479,-1.4847,-1.4868,-1.4885,-1.4942,-1.4961,-1.505,-1.5045,-1.5102,-1.5212,-1.5252,-1.5287,-1.5401,-1.5395,-1.542,-1.5473,-1.5528,-1.554,-1.5551,-1.5593,-1.5607,-1.543,-1.543,-1.543,0,-1.468,-1.4776,-1.479,-1.4861,-1.4899,-1.4893,-1.4968,-1.5005,-1.508,-1.5107,-1.5085,-1.5221,-1.5259,-1.5366,-1.5394,-1.5422,-1.5443,-1.5414,-1.5537,-1.5548,-1.5559,-1.5599,-1.5614,-1.5432,-1.5432,-1.5432,-1.5432,0,-1.4822,-1.4889,-1.4942,-1.5013,-1.5057,-1.5129,-1.5155,-1.5197,-1.5201,-1.5224,-1.5315,-1.5359,-1.5429,-1.5455,-1.546,-1.5563,-1.555,-1.5533,-1.5495,-1.5576,-1.5614,-1.5629,-1.5436,-1.5435,-1.5435,-1.5434,0,0,-1.4946,-1.5022,-1.5041,-1.5073,-1.5135,-1.5187,-1.5258,-1.5326,-1.5362,-1.5413,-1.5474,-1.5565,-1.5549,-1.5588,-1.5598,-1.5646,-1.5734,-1.5623,-1.5624,-1.5642,-1.585,-1.5864,-1.5881,-1.5729,-1.5732,-1.5734,-1.5845,0,-1.5054,-1.518,-1.5194,-1.5307,-1.5369,-1.5363,-1.5426,-1.547,-1.5493,-1.5549,-1.5575,-1.5639,-1.5612,-1.5636,-1.5683,-1.5713,-1.5776,-1.5705,-1.5787,-1.579,-1.5775,-1.5901,-1.5916,-1.6019,-1.586,-1.5863,-1.5864,0,-1.5197,-1.5251,-1.537,-1.5422,-1.5449,-1.5505,-1.5567,-1.562,-1.567,-1.5683,-1.5726,-1.5729,-1.5803,-1.576,-1.5863,-1.5814,-1.5848,-1.5867,-1.5872,-1.5882,-1.5834,-1.5916,-1.6053,-1.6069,-1.5887,-1.5886,-1.5884,0,-1.5276,-1.5379,-1.5463,-1.549,-1.5553,-1.5592,-1.562,-1.5668,-1.5707,-1.576,-1.5786,-1.5848,-1.5883,-1.5931,-1.595,-1.5917,-1.6052,-1.601,-1.6065,-1.6065,-1.6096,-1.6094,-1.6242,-1.6115,-1.6115,-1.6115,-1.6114,0,-1.5397,-1.547,-1.5499,-1.5552,-1.5633,-1.5648,-1.5729,-1.5755,-1.5796,-1.5854,-1.5852,-1.5906,-1.5927,-1.5984,-1.5999,-1.6082,-1.6097,-1.6111,-1.6114,-1.6112,-1.611,-1.6136,-1.613,-1.6119,-1.6118,-1.6117,-1.6116,0,-1.55,-1.5523,-1.5614,-1.5665,-1.568,-1.5738,-1.5782,-1.5832,-1.5853,-1.5925,-1.5943,-1.5976,-1.6043,-1.6066,-1.6148,-1.6158,-1.6255,-1.6251,-1.6238,-1.6239,-1.6293,-1.6288,-1.6464,-1.6488,-1.6344,-1.6345,-1.6346,0,-1.5577,-1.5633,-1.5689,-1.5726,-1.5756,-1.5816,-1.5856,-1.5871,-1.5912,-1.5973,-1.6016,-1.6082,-1.6136,-1.6243,-1.6275,-1.6337,-1.6336,-1.6394,-1.6346,-1.6342,-1.6339,-1.6336,-1.6342,-1.6403,-1.6405,-1.6406,-1.6407,0,-1.571,-1.5717,-1.5774,-1.5834,-1.588,-1.5928,-1.5975,-1.6006,-1.6028,-1.6075,-1.6143,-1.6184,-1.6266,-1.6333,-1.6395,-1.6424,-1.642,-1.6421,-1.6437,-1.6437,-1.6427,-1.6434,-1.6264,-1.6418,-1.6417,-1.6416,-1.6415,-1.6415,-1.5803,-1.5852,-1.5899,-1.5962,-1.5998,-1.6041,-1.6091,-1.6117,-1.6173,-1.6241,-1.6247,-1.632,-1.6367,-1.6451,-1.6483,-1.6541,-1.6525,-1.6548,-1.6555,-1.6561,-1.6565,-1.6416,-1.6552,-1.6552,-1.6552,-1.6551,-1.6551,0,-1.5937,-1.5966,-1.6023,-1.6088,-1.6137,-1.6126,-1.6176,-1.6218,-1.6283,-1.6327,-1.6379,-1.6457,-1.652,-1.6556,-1.6619,-1.6658,-1.6658,-1.6675,-1.6673,-1.668,-1.6575,-1.6555,-1.6674,-1.6674,-1.6674,-1.6674,-1.6674,-1.6674,-1.6012,-1.6095,-1.6108,-1.6209,-1.6238,-1.6309,-1.6339,-1.6378,-1.6414,-1.65,-1.6552,-1.6574,-1.6615,-1.6681,-1.6738,-1.6747,-1.6771,-1.679,-1.6797,-1.67,-1.6687,-1.6675,-1.6657,-1.6795,-1.6795,-1.6897,-1.6898,-1.6899]},{"header":{"parameterUnit":"m.s-1","parameterCategory":1,"la1":30.2991,"la2":30.254,"lo1":-89.0895,"lo2":-89.0444,"dy":0.0017,"dx":0.0017,"nx":28,"ny":28,"refTime":"2024-11-28T09:00:00:Z","depth":0,"parameterNumber":3,"parameterNumberName":"V-component_of_WINDS"},"data":[0,0,0,0,0,0,0,0,0,0,0,0,0,0,0,0,0,0,0,0,0,0,0,0,0,0,0,0,0,0,0,0,0,0,0,0,0,0,0,0,0,0,0,0,0,0,0,0,0,0,0,0,0,0,0,0,0,0,-8.4114,-8.4116,0,-8.4253,-8.4255,-8.4256,-8.4148,-8.4143,-8.4138,-8.4134,-8.4271,-8.4279,-8.4287,0,0,0,0,0,0,0,0,0,0,0,0,0,-8.3747,-8.3755,-8.4114,-8.4116,-8.4117,-8.4253,-8.4255,-8.4257,-8.4148,-8.4143,-8.4137,-8.4132,-8.4268,-8.4278,-8.4287,0,0,0,0,0,0,0,0,0,0,0,0,0,-8.3899,-8.3757,-8.4114,-8.408,-8.4078,-8.4253,-8.4255,-8.4257,-8.415,-8.4143,-8.4136,-8.4129,-8.4265,-8.4277,-8.4289,-8.4502,0,0,-8.4325,-8.4331,0,0,0,0,0,0,0,0,-8.389,-8.3912,-8.4083,-8.4082,-8.4081,-8.4176,-8.4176,-8.4339,-8.4151,-8.4122,-8.4134,-8.4126,-8.4245,-8.4258,-8.4299,-8.4509,-8.4515,-8.4326,-8.4334,-8.4339,-8.4342,0,0,0,0,0,0,0,-8.388,-8.3906,-8.4169,-8.4086,-8.4084,-8.4056,-8.4069,-8.4206,-8.4221,-8.4124,-8.4117,-8.4135,-8.4243,-8.4288,-8.4302,-8.4517,-8.4326,-8.4337,-8.4344,-8.4349,-8.4906,-8.4913,0,0,0,0,0,0,-8.3874,-8.3898,-8.4164,-8.4173,-8.3967,-8.4068,-8.4083,-8.4152,-8.4219,-8.4223,-8.4141,-8.4129,-8.4271,-8.4288,-8.4306,-8.4559,-8.4339,-8.435,-8.4357,-8.4899,-8.4908,-8.4916,0,0,0,0,0,0,-8.3866,-8.3898,-8.4159,-8.4033,-8.4064,-8.4082,-8.416,-8.4159,-8.4204,-8.4232,-8.4233,-8.4185,-8.4266,-8.4289,-8.4454,-8.4562,-8.4355,-8.4366,-8.489,-8.4902,-8.4912,-8.5068,0,0,0,0,0,0,-8.3856,-8.3896,-8.3979,-8.4036,-8.4072,-8.4307,-8.4167,-8.4167,-8.4226,-8.4212,-8.4273,-8.4277,-8.4262,-8.4437,-8.4466,-8.4575,-8.4376,-8.488,-8.4895,-8.4908,-8.5054,-8.5084,-8.511,0,0,0,0,0,-8.3843,-8.4017,-8.3984,-8.4017,-8.4176,-8.4314,-8.4334,-8.4315,-8.4235,-8.4317,-8.4335,-8.4275,-8.4546,-8.4455,-8.4487,-8.4601,-8.4873,-8.4891,-8.4907,-8.5041,-8.5078,-8.5109,0,0,0,0,0,0,-8.3971,-8.4024,-8.3988,-8.4186,-8.4246,-8.4295,-8.4399,-8.4355,-8.4438,-8.4422,-8.4394,-8.4408,-8.4582,-8.4608,-8.4505,-8.481,-8.4696,-8.4721,-8.4787,-8.4822,-8.485,-8.4839,-8.4386,0,0,0,0,0,-8.4022,-8.4132,-8.4171,-8.4342,-8.4374,-8.4382,-8.4441,-8.4422,-8.4482,-8.4507,-8.4536,-8.4596,-8.4694,-8.476,-8.4852,-8.5057,-8.5067,-8.5151,-8.5179,-8.5202,-8.5223,-8.5331,-8.5368,-8.4972,-8.4972,-8.4972,0,0,-8.4129,-8.4171,-8.4242,-8.4368,-8.4413,-8.4525,-8.4404,-8.4527,-8.4609,-8.4525,-8.4683,-8.4707,-8.4771,-8.4957,-8.504,-8.4984,-8.5335,-8.5224,-8.5242,-8.525,-8.5353,-8.539,-8.5423,-8.4984,-8.4982,-8.498,0,0,-8.438,-8.4424,-8.457,-8.4618,-8.4688,-8.4691,-8.4727,-8.4783,-8.4796,-8.4954,-8.4893,-8.4989,-8.516,-8.5208,-8.5254,-8.5524,-8.5471,-8.5554,-8.57,-8.5806,-8.5837,-8.5864,-8.5959,-8.5993,-8.5575,-8.5576,-8.5576,0,-8.4503,-8.4672,-8.4651,-8.4779,-8.4836,-8.4766,-8.4913,-8.4959,-8.5055,-8.5094,-8.503,-8.5243,-8.5281,-8.5476,-8.5542,-8.5583,-8.562,-8.5547,-8.5835,-8.5862,-8.5887,-8.5977,-8.6013,-8.5585,-8.5584,-8.5583,-8.5582,0,-8.4819,-8.4936,-8.5046,-8.5142,-8.521,-8.5347,-8.5345,-8.5417,-8.5391,-8.5401,-8.5562,-8.5606,-8.5705,-8.575,-8.5726,-8.5942,-8.5905,-8.5839,-8.5723,-8.5935,-8.6019,-8.6053,-8.5599,-8.5595,-8.5593,-8.559,0,0,-8.5154,-8.5237,-8.5277,-8.5319,-8.5391,-8.548,-8.5613,-8.5712,-8.5773,-8.5841,-8.595,-8.6096,-8.6035,-8.6088,-8.6069,-8.6162,-8.6371,-8.6084,-8.6085,-8.6134,-8.6609,-8.6658,-8.6698,-8.6336,-8.6343,-8.6348,-8.6603,0,-8.5408,-8.5641,-8.5626,-8.5845,-8.5952,-8.5887,-8.6002,-8.6057,-8.607,-8.6161,-8.6173,-8.6277,-8.6189,-8.6221,-8.631,-8.6327,-8.6465,-8.6308,-8.6435,-8.644,-8.6421,-8.6742,-8.6794,-8.7033,-8.6636,-8.6641,-8.6645,0,-8.5735,-8.5816,-8.6047,-8.6101,-8.6145,-8.625,-8.6338,-8.6427,-8.6487,-8.6489,-8.6549,-8.6514,-8.6645,-8.6528,-8.6707,-8.6601,-8.6651,-8.6667,-8.6676,-8.6686,-8.6555,-8.676,-8.7109,-8.7144,-8.6697,-8.6693,-8.6689,0,-8.5955,-8.6122,-8.6281,-8.6319,-8.6387,-8.6461,-8.6493,-8.6546,-8.6606,-8.6683,-8.6721,-8.6812,-8.6861,-8.6931,-8.692,-8.6836,-8.7102,-8.6984,-8.7106,-8.7107,-8.7164,-8.7161,-8.7525,-8.72,-8.7199,-8.7198,-8.7198,0,-8.624,-8.6383,-8.638,-8.6478,-8.6635,-8.6615,-8.6771,-8.6793,-8.6842,-8.6941,-8.6889,-8.6983,-8.6964,-8.7056,-8.7048,-8.7197,-8.722,-8.7224,-8.7219,-8.7228,-8.7227,-8.726,-8.7243,-8.7208,-8.7206,-8.7204,-8.7202,0,-8.6512,-8.6516,-8.6685,-8.6736,-8.6752,-8.6866,-8.6908,-8.6999,-8.7007,-8.7133,-8.7161,-8.7173,-8.728,-8.7276,-8.7396,-8.739,-8.7573,-8.755,-8.7554,-8.7548,-8.767,-8.7658,-8.8067,-8.8119,-8.7761,-8.7765,-8.7768,0,-8.6693,-8.6801,-8.6864,-8.6928,-8.6965,-8.7068,-8.7129,-8.7113,-8.7178,-8.7255,-8.7336,-8.7438,-8.7519,-8.7691,-8.7709,-8.78,-8.7778,-8.7915,-8.7791,-8.7796,-8.7779,-8.7772,-8.7782,-8.7939,-8.7943,-8.7947,-8.7949,0,-8.7013,-8.7009,-8.7101,-8.7194,-8.7269,-8.734,-8.7406,-8.746,-8.745,-8.7526,-8.7635,-8.7698,-8.7821,-8.7922,-8.8009,-8.8038,-8.7992,-8.7988,-8.8021,-8.803,-8.8027,-8.8029,-8.7619,-8.7979,-8.7976,-8.7974,-8.7972,-8.7971,-8.7244,-8.7337,-8.7396,-8.7499,-8.7547,-8.7609,-8.7697,-8.7717,-8.7808,-8.7908,-8.7892,-8.8014,-8.8069,-8.8182,-8.822,-8.8312,-8.8263,-8.8311,-8.8323,-8.8335,-8.8348,-8.8013,-8.8328,-8.8327,-8.8327,-8.8326,-8.8325,0,-8.756,-8.7595,-8.769,-8.7784,-8.7865,-8.7816,-8.7886,-8.7956,-8.8064,-8.8121,-8.8202,-8.8326,-8.8423,-8.8449,-8.8542,-8.8612,-8.8593,-8.8637,-8.8631,-8.8638,-8.8387,-8.8349,-8.865,-8.865,-8.865,-8.865,-8.865,-8.865,-8.7734,-8.7889,-8.7892,-8.8069,-8.8102,-8.8222,-8.8266,-8.8322,-8.8367,-8.8509,-8.8591,-8.8608,-8.8651,-8.8747,-8.8834,-8.8838,-8.8874,-8.8927,-8.8923,-8.8688,-8.8656,-8.8625,-8.8588,-8.8935,-8.8936,-8.9166,-8.9168,-8.9169]}]]